EW7554 Weather Reports


time (UTC)temp
F
wind
direction
speed
knots
gust
knots
rain 1hr
in
rain 24hr
in
rain mn
in
humidity
%
barometer
mb
20260904034508 80 163 1.7 6.1 0.00 0.03 0.03 75 1008.2
20260904033007 81 152 1.7 6.1 0.00 0.03 0.03 74 1008.1
20260904031507 81 163 2.6 7.8 0.00 0.03 0.03 73 1008.2
20260904030007 81 175 3.5 7.8 0.00 0.03 0.03 73 1008.3
20260904024506 81 194 3.5 7.8 0.00 0.03 0.03 74 1008.2
20260904023006 81 101 0.9 2.6 0.00 0.03 0.03 72 1008.2
20260904021512 81 142 0.9 6.1 0.00 0.03 0.03 72 1008.1
20260904020006 82 157 1.7 6.1 0.00 0.03 0.03 71 1008.0
20260904014504 82 167 3.5 7.0 0.00 0.03 0.03 70 1007.9
20260904013004 83 167 3.5 7.8 0.00 0.03 0.03 69 1007.8
20260904011503 83 171 4.3 7.8 0.00 0.03 0.03 68 1007.7
20260904010005 83 142 4.3 7.8 0.00 0.03 0.03 68 1007.5
20260904004502 84 171 3.5 7.8 0.00 0.03 0.03 67 1007.5
20260904003002 84 174 4.3 10.4 0.00 0.03 0.03 65 1007.5
20260904001501 85 170 3.5 7.8 0.00 0.03 0.03 64 1007.5
20260904000003 85 184 7.0 10.4 0.00 0.03 0.03 63 1007.6
20260903234601 86 140 6.1 13.9 0.00 0.03 0.03 62 1007.6
20260903233113 86 175 6.1 14.8 0.00 0.03 0.03 61 1007.5
20260903231600 87 157 7.0 13.0 0.00 0.03 0.03 61 1007.2
20260903230059 87 183 8.7 17.4 0.00 0.03 0.03 59 1006.8
20260903224559 87 169 8.7 14.8 0.00 0.03 0.03 59 1006.9
20260903223113 87 142 7.8 13.9 0.00 0.03 0.03 58 1006.9
20260903221556 87 168 7.8 12.2 0.00 0.03 0.03 58 1007.0
20260903220155 87 159 9.6 19.1 0.00 0.03 0.03 58 1007.0
20260903214553 87 163 7.8 14.8 0.00 0.03 0.03 59 1007.0
20260903213052 86 158 7.8 14.8 0.00 0.03 0.03 59 1007.2
20260903211555 86 169 7.8 17.4 0.00 0.03 0.03 59 1007.4
20260903210058 85 169 7.0 14.8 0.00 0.03 0.03 62 1007.2
20260903204549 85 166 6.1 12.2 0.00 0.03 0.03 59 1008.0
20260903203055 85 169 5.2 14.8 0.00 0.03 0.03 59 1007.9
20260903201548 86 171 7.8 13.9 0.00 0.03 0.03 58 1007.9
20260903200047 87 134 8.7 13.9 0.00 0.03 0.03 58 1007.9
20260903194547 86 168 8.7 15.6 0.00 0.03 0.03 59 1007.9
20260903193042 86 163 6.1 12.2 0.00 0.03 0.03 62 1008.2
20260903191540 85 151 4.3 7.8 0.01 0.03 0.03 68 1007.9
20260903190037 84 158 1.7 8.7 0.03 0.03 0.03 72 1008.2
20260903184533 81 26 1.7 4.3 0.03 0.03 0.03 79 1008.7
20260903183031 79 36 1.7 4.3 0.03 0.03 0.03 79 1008.7
20260903181532 78 111 0.9 2.6 0.02 0.02 0.02 78 1008.9
20260903180037 79 126 0.0 6.1 0.00 0.00 0.00 73 1008.8
20260903174528 80 164 3.5 5.2 0.00 0.00 0.00 69 1008.8
20260903173028 80 96 2.6 7.0 0.00 0.00 0.00 69 1008.8
20260903171535 81 165 3.5 8.7 0.00 0.00 0.00 68 1009.2
20260903170036 79 123 2.6 7.8 0.00 0.00 0.00 73 1009.5
20260903164524 78 167 2.6 4.3 0.00 0.00 0.00 73 1009.6
20260903163026 79 167 2.6 8.7 0.00 0.00 0.00 71 1009.5
20260903161522 79 156 3.5 7.8 0.00 0.00 0.00 70 1009.5
20260903160022 80 145 2.6 7.0 0.00 0.00 0.00 67 1009.5
20260903154521 80 139 2.6 6.1 0.00 0.00 0.00 66 1009.4
20260903153018 80 156 0.9 4.3 0.00 0.00 0.00 66 1009.4
20260903151517 79 170 2.6 5.2 0.00 0.00 0.00 68 1009.6
20260903150034 80 94 0.9 3.5 0.00 0.00 0.00 68 1009.3
20260903144523 80 132 1.7 4.3 0.00 0.00 0.00 66 1009.3
20260903143023 79 198 1.7 3.5 0.00 0.00 0.00 68 1009.3
20260903141508 78 152 1.7 6.1 0.00 0.00 0.00 69 1009.4
20260903140013 78 131 0.9 6.1 0.00 0.00 0.00 69 1009.4
20260903134501 78 159 1.7 6.1 0.00 0.00 0.00 70 1009.6
20260903133106 76 107 0.9 2.6 0.00 0.00 0.00 74 1009.6
20260903131555 76 163 2.6 5.2 0.00 0.00 0.00 74 1009.7
20260903124557 76 165 7.8 11.3 0.00 0.00 0.00 74 1009.4
20260903123051 76 187 2.6 7.0 0.00 0.00 0.00 74 1008.7
20260903121549 76 190 3.5 7.8 0.00 0.00 0.00 74 1008.6
20260903120052 76 154 2.6 5.2 0.00 0.00 0.00 76 1008.9
20260903114543 76 165 2.6 8.7 0.00 0.00 0.00 79 1009.6
20260903113050 75 163 3.5 6.1 0.00 0.00 0.00 82 1009.6
20260903111541 75 173 2.6 4.3 0.00 0.00 0.00 82 1009.6
20260903110040 74 141 3.5 6.1 0.00 0.00 0.00 83 1009.4
20260903104540 74 171 3.5 5.2 0.00 0.00 0.00 83 1009.6
20260903103039 73 167 3.5 7.0 0.00 0.00 0.00 85 1009.9
20260903101538 73 143 1.7 4.3 0.00 0.00 0.00 85 1009.4
20260903100037 73 167 2.6 5.2 0.00 0.00 0.00 85 1009.5
20260903094544 73 137 1.7 3.5 0.00 0.00 0.00 85 1009.4
20260903093034 73 69 0.0 2.6 0.00 0.00 0.00 84 1009.2
20260903091534 74 73 0.9 2.6 0.00 0.00 0.00 84 1009.4
20260903090033 74 70 0.9 3.5 0.00 0.00 0.00 83 1009.1
20260903084542 74 97 1.7 4.3 0.00 0.00 0.00 83 1009.1
20260903083028 74 66 1.7 3.5 0.00 0.00 0.00 82 1009.2
20260903081527 74 41 1.7 3.5 0.00 0.00 0.00 82 1009.4
20260903080026 74 70 1.7 5.2 0.00 0.00 0.00 82 1009.4
20260903074523 75 65 0.9 4.3 0.00 0.03 0.00 81 1009.6
20260903073024 75 102 1.7 5.2 0.00 0.03 0.00 81 1009.7
20260903071524 75 48 0.9 3.5 0.00 0.03 0.00 80 1009.8
20260903070019 75 48 0.9 4.3 0.00 0.03 0.00 80 1009.8
20260903064517 75 58 1.7 3.5 0.00 0.04 0.00 79 1009.9
20260903063015 76 66 0.9 3.5 0.00 0.04 0.00 79 1010.0
20260903061516 76 60 0.9 2.6 0.00 0.04 0.00 78 1010.0
20260903060013 76 61 1.7 3.5 0.00 0.04 0.00 78 1010.0
20260903054510 77 74 0.9 3.5 0.00 0.04 0.00 77 1010.1
20260903053005 77 69 0.9 3.5 0.00 0.04 0.00 77 1010.0
20260903051504 77 67 1.7 5.2 0.00 0.04 0.00 76 1010.0
20260903050105 78 59 0.9 3.5 0.00 0.04 0.00 75 1010.1
20260903044603 78 78 0.9 4.3 0.00 0.04 0.04 75 1010.2
20260903043111 78 74 2.6 4.3 0.00 0.04 0.04 74 1010.3
20260903041558 78 66 1.7 4.3 0.00 0.04 0.04 73 1010.5
20260903040058 79 34 0.9 4.3 0.00 0.04 0.04 72 1010.5